CW7769 Weather Reports


time (UTC)temp
C
wind
direction
speed
KPH
gust
KPH
rain 1hr
cm
rain 24hr
cm
rain mn
cm
humidity
%
barometer
mb
20260902151358 26 299 3.2 16.1 0.00 0.00 0.00 30 1020.2
20260902145231 26 315 1.6 16.1 0.00 0.00 0.00 31 1020.2
20260902144212 25 308 3.2 16.1 0.00 0.00 0.00 32 1020.2
20260902143157 26 249 1.6 14.5 0.00 0.00 0.00 32 1020.3
20260902142152 25 288 3.2 20.9 0.00 0.00 0.00 31 1020.3
20260902141207 26 290 4.8 20.9 0.00 0.00 0.00 31 1020.2
20260902140201 26 254 3.2 19.3 0.00 0.00 0.00 30 1020.2
20260902135147 26 262 3.2 19.3 0.00 0.00 0.00 30 1020.2
20260902134113 26 218 3.2 16.1 0.00 0.00 0.00 30 1020.1
20260902131939 26 277 4.8 17.7 0.00 0.00 0.00 31 1020.1
20260902123451 26 291 0.0 11.3 0.00 0.00 0.00 35 1020.4
20260902122503 26 277 0.0 1.6 0.00 0.00 0.00 36 1020.6
20260902121448 26 317 0.0 9.7 0.00 0.00 0.00 37 1020.6
20260902120459 25 300 1.6 4.8 0.00 0.00 0.00 39 1020.6
20260902115437 24 292 1.6 9.7 0.00 0.00 0.00 40 1020.6
20260902114418 24 342 1.6 3.2 0.00 0.00 0.00 41 1020.6
20260902112306 25 329 0.0 0.0 0.00 0.00 0.00 42 1021.0
20260902111312 25 221 0.0 1.6 0.00 0.00 0.00 39 1021.0
20260902110313 24 306 1.6 9.7 0.00 0.00 0.00 43 1021.2
20260902105255 24 340 0.0 4.8 0.00 0.00 0.00 44 1021.3
20260902104255 24 19 0.0 4.8 0.00 0.00 0.00 45 1021.3
20260902103250 24 302 0.0 6.4 0.00 0.00 0.00 45 1021.5
20260902101147 23 129 0.0 0.0 0.00 0.00 0.00 49 1021.6
20260902100149 22 129 0.0 0.0 0.00 0.00 0.00 49 1021.8
20260902095139 22 129 0.0 0.0 0.00 0.00 0.00 50 1021.8
20260902094137 22 129 0.0 1.6 0.00 0.00 0.00 50 1021.6
20260902093140 21 141 0.0 1.6 0.00 0.00 0.00 54 1021.6
20260902092140 20 299 0.0 0.0 0.00 0.00 0.00 56 1021.7
20260902090051 19 299 0.0 0.0 0.00 0.00 0.00 59 1021.9
20260902085044 19 299 0.0 0.0 0.00 0.00 0.00 60 1022.0
20260902084052 18 299 0.0 0.0 0.00 0.00 0.00 62 1022.0
20260902083035 17 299 0.0 0.0 0.00 0.00 0.00 63 1021.9
20260902082033 17 299 0.0 0.0 0.00 0.00 0.00 65 1022.1
20260902081004 16 299 0.0 0.0 0.00 0.00 0.00 68 1022.0
20260902075956 16 299 0.0 0.0 0.00 0.00 0.00 70 1021.9
20260902075000 15 299 0.0 0.0 0.00 0.00 0.00 73 1021.7
20260902072822 15 299 0.0 0.0 0.00 0.00 0.00 75 1021.4
20260902071800 14 299 0.0 0.0 0.00 0.00 0.00 75 1021.5
20260902070751 14 299 0.0 0.0 0.00 0.00 0.00 74 1021.5
20260902065812 14 299 0.0 0.0 0.00 0.00 0.00 75 1021.4
20260902064827 13 299 0.0 0.0 0.00 0.00 0.00 74 1021.1
20260902063823 13 299 0.0 0.0 0.00 0.00 0.00 74 1021.0
20260902062752 13 299 0.0 0.0 0.00 0.00 0.00 74 1020.9
20260902061740 13 299 0.0 0.0 0.00 0.00 0.00 74 1021.1
20260902060709 12 299 0.0 0.0 0.00 0.00 0.00 73 1021.3
20260902055636 12 299 0.0 0.0 0.00 0.00 0.00 72 1021.4
20260902054701 12 299 0.0 0.0 0.00 0.00 0.00 72 1021.3
20260902053649 12 299 0.0 0.0 0.00 0.00 0.00 72 1021.3
20260902051519 12 299 0.0 0.0 0.00 0.00 0.00 71 1021.3
20260902045353 12 299 0.0 0.0 0.00 0.00 0.00 71 1020.9
20260902044357 12 299 0.0 0.0 0.00 0.00 0.00 71 1020.9
20260902043353 12 299 0.0 0.0 0.00 0.00 0.00 70 1021.0
20260902042354 12 299 0.0 0.0 0.00 0.00 0.00 70 1020.9
20260902041410 12 299 0.0 0.0 0.00 0.00 0.00 70 1021.0
20260902040417 12 299 0.0 0.0 0.00 0.00 0.00 70 1020.9
20260902035440 12 299 0.0 0.0 0.00 0.00 0.00 70 1021.0
20260902034417 12 299 0.0 0.0 0.00 0.00 0.00 69 1021.2
20260902033417 12 299 0.0 0.0 0.00 0.00 0.00 70 1021.0
20260902032426 12 299 0.0 0.0 0.00 0.00 0.00 69 1020.9
20260902031417 12 299 0.0 0.0 0.00 0.00 0.00 69 1021.0
20260902030413 12 299 0.0 0.0 0.00 0.00 0.00 69 1021.0
20260902025422 12 299 0.0 0.0 0.00 0.00 0.00 69 1021.0
20260902024426 12 299 0.0 0.0 0.00 0.00 0.00 69 1020.9
20260902023451 12 299 0.0 0.0 0.00 0.00 0.00 68 1021.0
20260902022428 13 299 0.0 0.0 0.00 0.00 0.00 68 1021.1
20260902021421 13 299 0.0 0.0 0.00 0.00 0.00 68 1021.0
20260902020405 13 299 0.0 0.0 0.00 0.00 0.00 68 1020.9
20260902015336 13 299 0.0 0.0 0.00 0.00 0.00 68 1020.9
20260902014310 13 299 0.0 0.0 0.00 0.00 0.00 68 1020.9
20260902013329 13 299 0.0 0.0 0.00 0.00 0.00 68 1020.9
20260902012255 13 299 0.0 0.0 0.00 0.00 0.00 67 1020.9
20260902011221 13 299 0.0 0.0 0.00 0.00 0.00 67 1020.9
20260902010157 13 299 0.0 0.0 0.00 0.00 0.00 67 1020.9
20260902004052 13 299 0.0 0.0 0.00 0.00 0.00 67 1021.2
20260902003113 13 299 0.0 0.0 0.00 0.00 0.00 67 1021.2
20260902002100 14 299 0.0 0.0 0.00 0.00 0.00 66 1021.2
20260902001124 14 299 0.0 0.0 0.00 0.00 0.00 66 1021.3
20260902000104 14 299 0.0 0.0 0.00 0.00 0.00 65 1021.3
20260901235044 14 299 0.0 0.0 0.00 0.00 0.00 65 1021.3
20260901233058 15 299 0.0 0.0 0.00 0.00 0.00 64 1021.5
20260901230913 15 299 0.0 0.0 0.00 0.00 0.00 64 1021.6
20260901225915 15 299 0.0 0.0 0.00 0.00 0.00 64 1021.6
20260901224922 15 299 0.0 0.0 0.00 0.00 0.00 64 1021.5
20260901223914 15 299 0.0 0.0 0.00 0.00 0.00 64 1021.6
20260901222841 16 299 0.0 0.0 0.00 0.00 0.00 63 1021.5
20260901221843 16 299 0.0 0.0 0.00 0.00 0.00 63 1021.5
20260901220814 16 299 0.0 0.0 0.00 0.00 0.00 63 1021.5
20260901215755 16 299 0.0 0.0 0.00 0.00 0.00 63 1021.4
20260901213612 16 299 0.0 0.0 0.00 0.00 0.00 62 1021.3
20260901212552 16 299 0.0 0.0 0.00 0.00 0.00 60 1021.2
20260901210346 17 299 0.0 0.0 0.00 0.00 0.00 59 1021.1
20260901205354 17 299 0.0 0.0 0.00 0.00 0.00 59 1021.1
20260901204345 17 299 0.0 0.0 0.00 0.00 0.00 58 1021.2
20260901203322 17 299 0.0 0.0 0.00 0.00 0.00 58 1021.2
20260901202342 18 299 0.0 0.0 0.00 0.00 0.00 57 1021.1
20260901201337 18 299 0.0 0.0 0.00 0.00 0.00 57 1021.2
20260901200337 18 299 0.0 0.0 0.00 0.00 0.00 55 1021.1
20260901194236 19 299 0.0 0.0 0.00 0.03 0.00 53 1021.1
20260901193217 20 299 0.0 0.0 0.00 0.08 0.00 52 1021.0
20260901191055 20 299 0.0 0.0 0.00 0.08 0.00 51 1020.9
20260901190048 20 299 0.0 0.0 0.00 0.08 0.00 50 1020.9
20260901185023 21 299 0.0 0.0 0.00 0.08 0.00 49 1020.8
20260901184038 21 299 0.0 0.0 0.00 0.08 0.00 47 1020.7
20260901183035 22 299 0.0 0.0 0.00 0.08 0.00 47 1020.6
20260901182027 22 299 0.0 0.0 0.00 0.08 0.00 45 1020.6
20260901181019 23 299 0.0 0.0 0.00 0.08 0.00 43 1020.4
20260901180002 23 299 0.0 0.0 0.00 0.08 0.00 41 1020.4
20260901174945 23 299 0.0 0.0 0.00 0.08 0.00 40 1020.4
20260901174009 23 299 0.0 0.0 0.00 0.08 0.00 39 1020.3
20260901173006 23 288 0.0 0.0 0.00 0.08 0.00 39 1020.4
20260901172006 23 284 0.0 1.6 0.00 0.08 0.00 38 1020.3
20260901165853 24 278 1.6 19.3 0.00 0.08 0.00 37 1020.4
20260901164917 24 272 4.8 19.3 0.00 0.08 0.00 36 1020.5
20260901163906 24 221 1.6 12.9 0.00 0.08 0.00 37 1020.4
20260901162840 24 263 1.6 12.9 0.00 0.08 0.00 37 1020.5
20260901160648 25 237 3.2 19.3 0.00 0.08 0.00 36 1020.5
20260901155702 25 277 4.8 24.1 0.00 0.08 0.00 35 1020.5
20260901154718 25 251 4.8 24.1 0.00 0.08 0.00 36 1020.5
20260901153710 25 286 4.8 17.7 0.00 0.08 0.00 35 1020.6
20260901152653 25 277 1.6 12.9 0.00 0.08 0.00 36 1020.5